KD7DVD-1 Weather Reports


Display with metric or nautical units.
time (UTC)temp
F
wind
direction
speed
MPH
gust
MPH
rain 1hr
in
rain 24hr
in
rain mn
in
humidity
%
barometer
mb
20260504050015 67 0.0 0.0 0.00 0.00 0.00 58 1009.1
20260504043015 69 0.0 0.0 0.00 0.00 0.00 52 1009.0
20260504040015 71 0.0 1.0 0.00 0.00 0.00 48 1008.8
20260504033015 72 0.0 1.0 0.00 0.00 0.00 47 1008.8
20260504030017 74 0.0 2.0 0.00 0.00 0.00 47 1008.8
20260504023017 76 0.0 2.0 0.00 0.00 0.00 42 1008.6
20260504020015 79 0.0 3.0 0.00 0.00 0.00 37 1008.8
20260504013017 83 0.0 5.0 0.00 0.00 0.00 35 1009.0
20260504010017 82 270 1.0 4.0 0.00 0.00 0.00 39 1009.1
20260504003017 82 270 1.0 5.0 0.00 0.00 0.00 39 1009.5
20260504000017 82 0.0 5.0 0.00 0.00 0.00 39 1009.7
20260503233017 83 0.0 4.0 0.00 0.00 0.00 40 1010.0
20260503230017 81 0.0 3.0 0.00 0.00 0.00 41 1010.2
20260503223016 81 270 1.0 6.0 0.00 0.00 0.00 41 1010.6
20260503220016 79 270 2.0 7.0 0.00 0.00 0.00 41 1010.9
20260503213016 77 270 1.0 7.0 0.00 0.00 0.00 40 1011.1
20260503210016 77 0.0 4.0 0.00 0.00 0.00 43 1011.2
20260503203016 75 90 1.0 6.0 0.00 0.00 0.00 48 1011.8
20260503200016 74 90 1.0 5.0 0.00 0.00 0.00 50 1012.1
20260503193017 74 90 1.0 5.0 0.00 0.00 0.00 50 1012.7
20260503190016 73 0.0 4.0 0.00 0.00 0.00 50 1013.1
20260503183016 71 90 1.0 6.0 0.00 0.00 0.00 56 1013.2
20260503180016 69 90 1.0 5.0 0.00 0.00 0.00 61 1013.4
20260503173016 67 90 1.0 4.0 0.00 0.00 0.00 64 1013.6